This demonstration page uses our WeatherBlox Daily Observations layout. Learn more.

36.17497, -115.13722

Hourly Observations for July 5, 2015

Temp ( °F °C ) Dew Point ( °F °C ) Humidity (%) Winds ( mph kmh ) Pressure ( in mb ) Visibility ( mi km ) Precip ( " mm )
12:53 am 00:53 Clear 90 32.2 51 10.6 26 26 W 5 7 29.78 1008 10 16.0934 0 0
1:53 am 01:53 Clear 88 31.1 52 11.1 29 29 W 7 11 29.78 1009 10 16.0934 0 0
2:53 am 02:53 Clear 89 31.7 48 8.9 24 24 N 9 15 29.78 1009 10 16.0934 0 0
3:53 am 03:53 Clear 88 31.1 48 8.9 25 25 WNW 10 17 29.79 1009 10 16.0934 0 0
4:53 am 04:53 Clear 87 30.6 49 9.4 27 27 NNW 7 11 29.8 1009 10 16.0934 0 0
5:53 am 05:53 Sunny 85 29.4 49 9.4 29 29 NNW 6 9 29.83 1010 10 16.0934 0 0
6:53 am 06:53 Sunny 89 31.7 50 10 26 26 N 5 7 29.85 1011 10 16.0934 0 0
7:53 am 07:53 Sunny 91 32.8 50 10 25 25 NE 6 9 29.85 1011 10 16.0934 0 0
8:53 am 08:53 Sunny 93 33.9 49 9.4 22 22 Calm 29.86 1011 10 16.0934 0 0
9:53 am 09:53 Mostly Sunny 94 34.4 50 10 22 22 Calm 29.86 1011 10 16.0934 0 0
10:53 am 10:53 Sunny 96 35.6 49 9.4 20 20 Calm 29.85 1011 10 16.0934 0 0
11:53 am 11:53 Sunny 100 37.8 48 8.9 17 17 VRB 6 9 29.84 1010 10 16.0934 0 0
12:53 pm 12:53 Sunny 101 38.3 49 9.4 17 17 S 9 15 29.82 1010 10 16.0934 0 0
1:44 pm 13:44 Mostly Cloudy 91 33 52 11 26 26 NNW 23 37 29.71 1006 10 16.0934 0 0
1:53 pm 13:53 Partly Cloudy 92 33.3 48 8.9 22 22 NNW 21 33 29.83 1010 10 16.0934 0 0
2:53 pm 14:53 Mostly Cloudy with Light Rain 92 33.3 53 11.7 27 27 WSW 8 13 29.85 1011 10 16.0934 0 0.0254
3:53 pm 15:53 Sunny 94 34.4 49 9.4 21 21 SW 14 22 29.83 1010 10 16.0934 0 0.0254
4:53 pm 16:53 Sunny 94 34.4 48 8.9 21 21 SSW 7 11 29.81 1010 10 16.0934 0 0
5:53 pm 17:53 Sunny 94 34.4 48 8.9 21 21 SSW 12 19 29.81 1009 10 16.0934 0 0
6:53 pm 18:53 Sunny 94 34.4 47 8.3 20 20 SSE 9 15 29.81 1010 10 16.0934 0 0
7:53 pm 19:53 Sunny 91 32.8 48 8.9 23 23 E 7 11 29.82 1010 10 16.0934 0 0
8:53 pm 20:53 Clear 91 32.8 48 8.9 23 23 SSE 7 11 29.83 1010 10 16.0934 0 0
9:53 pm 21:53 Clear 86 30 53 11.7 32 32 N 23 37 29.88 1012 10 16.0934 0 0
10:53 pm 22:53 Clear 85 29.4 53 11.7 33 33 NNW 28 44 29.88 1012 10 16.0934 0 0
11:53 pm 23:53 Clear 85 29.4 51 10.6 31 31 NW 20 31 29.89 1012 10 16.0934 0 0

Powered by AerisWeather